This demonstration page uses our WeatherBlox Daily Observations layout. Learn more.

Left ArrowRight Arrow

31.31129, -92.44514

Hourly Observations for August 24, 2022

Temp ( °F °C ) Dew Point ( °F °C ) Humidity (%) Winds ( mph kmh ) Pressure ( in mb ) Visibility ( mi km ) Precip ( " mm )
12:53 am 00:53 Cloudy 77 25 74 23.3 90 90 S 3 6 29.87 1012 10 16 0.00 0.00
1:53 am 01:53 Cloudy 77 25 74 23.3 90 90 S 5 7 29.86 1011 9 14 0.00 0.00
2:53 am 02:53 Cloudy with Light Rain 77 25 74 23.3 90 90 SSW 5 7 29.86 1011 7 11 0.01 0.13
3:04 am 03:04 Cloudy with Heavy Rain 77 25 74 23.3 90 90 SSW 10 17 29.85 1011 1 1 0.31 7.87
3:15 am 03:15 Cloudy with Light Rain 78 25.6 74 23.3 87 87 S 9 15 29.85 1011 2 3 0.43 10.92
3:22 am 03:22 Cloudy with Light Rain 77 25 74 23.3 90 90 S 6 9 29.85 1011 9 14 0.43 10.92
3:53 am 03:53 Cloudy 77 25 75 23.9 94 94 SSW 8 13 29.85 1011 10 16 0.43 10.92
4:10 am 04:10 Mostly Cloudy 78 25.6 75 23.9 90 90 WSW 6 9 29.84 1010 10 16 0.00 0.00
4:34 am 04:34 Mostly Cloudy 78 25.6 75 23.9 90 90 SSW 5 7 29.84 1010 10 16 0.00 0.00
5:00 am 05:00 Cloudy 78 25.6 75 23.9 90 90 S 6 9 29.85 1011 10 16 0.00 0.00
5:08 am 05:08 Cloudy 78 25.6 75 23.9 90 90 SSW 3 6 29.85 1011 10 16 0.00 0.00
5:57 am 05:57 Cloudy with Thunderstorms 78 25.6 75 23.9 90 90 S 3 6 29.86 1011 10 16 0.00 0.00
6:02 am 06:02 Cloudy with Thunderstorms 78 25.6 75 23.9 90 90 S 6 9 29.86 1011 5 8 0.02 0.51
6:07 am 06:07 Cloudy with Strong Thunderstorms 77 25 75 23.9 94 94 S 6 9 29.86 1011 2 2 0.13 3.30
6:22 am 06:22 Cloudy with Light Rain 77 25 74 23.3 90 90 S 5 7 29.85 1011 3 4 0.44 11.18
6:29 am 06:29 Cloudy with Light Rain 77 25 74 23.3 90 90 WSW 5 7 29.86 1011 9 14 0.44 11.18
6:51 am 06:51 Cloudy with Nearby Thunderstorms 77 25 74 23.3 90 90 Calm 29.87 1012 9 14 0.46 11.68
6:58 am 06:58 Cloudy with Nearby Thunderstorms 77 25 74 23.3 90 90 Calm 29.87 1011 8 13 0.01 0.13
7:09 am 07:09 Cloudy with Nearby Thunderstorms 77 25 74 23.3 90 90 Calm 29.87 1011 10 16 0.01 0.25
7:14 am 07:14 Cloudy 77 25 74 23.3 90 90 SSE 5 7 29.88 1012 10 16 0.01 0.25
7:20 am 07:20 Cloudy with Light Rain 77 25 74 23.3 90 90 SSE 3 6 29.88 1012 9 14 0.01 0.25
7:46 am 07:46 Cloudy with Heavy Rain 77 25 74 23.3 90 90 S 5 7 29.89 1012 2 3 0.12 3.05
7:55 am 07:55 Cloudy with Heavy Rain 77 25 74 23.3 90 90 SSE 13 20 29.88 1012 1 2 0.02 0.51
8:16 am 08:16 Cloudy with Nearby Thunderstorms 76 24.4 74 23.3 94 94 S 9 15 29.88 1012 1 2 0.31 7.87
8:30 am 08:30 Cloudy with Light Rain 76 24.4 74 23.3 94 94 S 6 9 29.88 1012 3 4 0.40 10.16
8:46 am 08:46 Cloudy with Rain 76 24.4 74 23.3 94 94 SSE 8 13 29.89 1012 3 4 0.46 11.68
8:53 am 08:53 Cloudy with Heavy Rain 76 24.4 74 23.3 94 94 WNW 3 6 29.90 1013 1 2 0.51 12.95
9:34 am 09:34 Cloudy with Heavy Rain 76 24.4 74 23.3 94 94 S 5 7 29.91 1013 1 1 0.32 8.13
9:42 am 09:42 Cloudy with Rain 76 24.4 74 23.3 94 94 Calm 29.91 1013 2 3 0.35 8.89
9:53 am 09:53 Cloudy with Rain 76 24.4 74 23.3 94 94 S 5 7 29.92 1013 2 2 0.37 9.40
10:03 am 10:03 Cloudy with Light Rain 76 24.4 74 23.3 94 94 S 7 11 29.92 1013 6 10 0.01 0.25
10:49 am 10:49 Cloudy with Mist and Fog 79 26 75 24 89 89 S 8 13 29.92 1013 6 10 0.02 0.51
10:53 am 10:53 Cloudy with Mist and Fog 78 25.6 75 23.9 90 90 S 9 15 29.92 1013 6 10 0.02 0.51
11:32 am 11:32 Cloudy 79 26.1 75 23.9 88 88 S 6 9 29.91 1013 10 16 0.01 0.13
11:53 am 11:53 Cloudy 80 26.7 76 24.4 87 87 S 6 9 29.91 1013 10 16 0.01 0.13
12:12 pm 12:12 Cloudy 80 26.7 75 23.9 85 85 SSW 8 13 29.89 1012 10 16 0.00 0.00
12:53 pm 12:53 Cloudy 82 27.8 75 23.9 79 79 SW 9 15 29.88 1012 10 16 0.00 0.00
1:49 pm 13:49 Partly Cloudy 84 29 75 24 74 74 W 6 9 29.87 1011 10 16 0.00 0.00
1:53 pm 13:53 Partly Cloudy 85 29.4 75 23.9 72 72 W 6 9 29.88 1012 10 16 0.00 0.00
2:15 pm 14:15 Mostly Cloudy 85 29.4 75 23.9 72 72 WNW 8 13 29.86 1011 10 16 0.00 0.00
2:53 pm 14:53 Cloudy 81 27.2 75 23.9 82 82 SSW 8 13 29.87 1011 10 16 0.00 0.00
3:14 pm 15:14 Cloudy 82 27.8 75 23.9 79 79 SSW 7 11 29.87 1011 10 16 0.00 0.00
3:41 pm 15:41 Cloudy 84 28.9 75 23.9 74 74 SSW 8 13 29.87 1011 9 14 0.00 0.00
3:53 pm 15:53 Cloudy 84 28.9 75 23.9 74 74 S 8 13 29.87 1012 10 16 0.00 0.00
4:12 pm 16:12 Cloudy 84 28.9 75 23.9 74 74 SSW 7 11 29.86 1011 10 16 0.00 0.00
4:50 pm 16:50 Partly Cloudy 86 30 75 24 70 70 S 9 15 29.84 1011 8 13 0.00 0.00
4:53 pm 16:53 Partly Cloudy 84 28.9 75 23.9 74 74 S 10 17 29.85 1011 9 14 0.00 0.00
5:01 pm 17:01 Mostly Cloudy 85 29.4 75 23.9 72 72 S 9 15 29.84 1011 7 11 0.00 0.00
5:11 pm 17:11 Partly Cloudy 85 29.4 75 23.9 72 72 S 8 13 29.84 1011 10 16 0.00 0.00
5:41 pm 17:41 Mostly Cloudy with Nearby Thunderstorms 84 28.9 75 23.9 74 74 SSW 6 9 29.85 1011 10 16 0.01 0.13
5:53 pm 17:53 Cloudy with Nearby Thunderstorms 84 28.9 75 23.9 74 74 S 7 11 29.85 1011 10 16 0.01 0.13
6:02 pm 18:02 Cloudy with Light Rain 84 28.9 75 23.9 74 74 SSW 6 9 29.85 1011 9 14 0.01 0.13
6:53 pm 18:53 Cloudy 81 27.2 75 23.9 82 82 NNE 8 13 29.86 1011 10 16 0.01 0.13
7:15 pm 19:15 Cloudy with Nearby Thunderstorms 81 27.2 75 23.9 82 82 NNE 6 9 29.86 1011 10 16 0.00 0.00
7:34 pm 19:34 Cloudy with Thunderstorms 80 26.7 75 23.9 85 85 N 8 13 29.87 1011 10 16 0.01 0.13
7:53 pm 19:53 Cloudy with Strong Thunderstorms 78 25.6 74 23.3 87 87 NNE 9 15 29.88 1012 3 5 0.06 1.52
7:58 pm 19:58 Cloudy with Strong Thunderstorms 77 25 74 23.3 90 90 NNE 3 6 29.87 1011 2 3 0.10 2.54
8:14 pm 20:14 Cloudy with Heavy Rain 77 25 73 22.8 88 88 W 7 11 29.86 1011 2 3 0.29 7.37
8:24 pm 20:24 Cloudy with Light Rain 77 25 74 23.3 90 90 SW 6 9 29.86 1011 6 10 0.30 7.62
8:53 pm 20:53 Cloudy 77 25 74 23.3 90 90 Calm 29.88 1012 10 16 0.30 7.62
9:00 pm 21:00 Mostly Clear 77 25 74 23.3 90 90 Calm 29.87 1011 10 16 0.00 0.00
9:37 pm 21:37 Mostly Cloudy 77 25 74 23.3 90 90 NNE 6 9 29.89 1012 10 16 0.00 0.00
9:53 pm 21:53 Mostly Cloudy 77 25 74 23.3 90 90 Calm 29.90 1012 10 16 0.00 0.00
10:07 pm 22:07 Mostly Cloudy 77 25 74 23.3 90 90 Calm 29.90 1012 10 16 0.00 0.00
10:53 pm 22:53 Cloudy 77 25 74 23.3 90 90 SE 5 7 29.91 1013 10 16 0.00 0.00
11:04 pm 23:04 Cloudy 77 25 74 23.3 90 90 Calm 29.91 1013 10 16 0.00 0.00
11:26 pm 23:26 Cloudy 77 25 74 23.3 90 90 Calm 29.91 1013 10 16 0.00 0.00
11:53 pm 23:53 Cloudy 78 25.6 74 23.3 87 87 Calm 29.91 1013 10 16 0.00 0.00

Powered by AerisWeather